QPF
0.00 0.00 0.00 0.00 0.00 0.00 0.00 0.00 0.00 0.00 0.00 0.00 0.00 0.00 0.00 0.00 0.00 0.00 0.00 0.00 0.00 0.00 0.00 0.00 0.00 0.00 0.00 0.00 0.00 0.00 0.00 0.00 0.00 0.00 0.00 0.00 0.00 0.00 0.00 0.00 0.00 0.00 0.00 0.01
0.00 0.00 0.00 0.00 0.00 0.00 0.00 0.00 0.00 0.00 0.00 0.00 0.01 0.01 0.01 0.01 0.01 0.00 0.00 0.00 0.00 0.00 0.00 0.00 0.00 0.00 0.00 0.00 0.00 0.00 0.00 0.00 0.01 0.01 0.01 0.01 0.00 0.00 0.00 0.00 0.00 0.00 0.00 0.01
0.00 0.01 0.00 0.00 0.00 0.00 0.00 0.01 0.01 0.02 0.02 0.02 0.02 0.02 0.02 0.01 0.01 0.01 0.01 0.01 0.00 0.00 0.00 0.00 0.00 0.00 0.00 0.00 0.00 0.00 0.00 0.00 0.01 0.02 0.01 0.01 0.01 0.01 0.00 0.00 0.00 0.00 0.00 0.00
0.00 0.00 0.00 0.00 0.00 0.00 0.01 0.02 0.03 0.03 0.03 0.03 0.04 0.04 0.05 0.06 0.05 0.03 0.02 0.01 0.01 0.00 0.00 0.00 0.00 0.00 0.00 0.00 0.00 0.00 0.01 0.01 0.02 0.03 0.03 0.03 0.03 0.02 0.01 0.00 0.00 0.00 0.00 0.00
0.01 0.00 0.00 0.01 0.01 0.01 0.02 0.03 0.03 0.04 0.06 0.08 0.08 0.08 0.08 0.06 0.04 0.02 0.01 0.00 0.00 0.00 0.00 0.00 0.00 0.00 0.00 0.00 0.00 0.00 0.01 0.02 0.04 0.05 0.05 0.05 0.05 0.05 0.04 0.02 0.00 0.00 0.00 0.00
0.00 0.00 0.01 0.02 0.02 0.02 0.03 0.09 0.11 0.10 0.08 0.06 0.04 0.03 0.02 0.01 0.00 0.00 0.00 0.00 0.00 0.00 0.00 0.00 0.00 0.00 0.00 0.00 0.00 0.00 0.01 0.02 0.04 0.06 0.07 0.08 0.09 0.10 0.08 0.05 0.02 0.00 0.00 0.00
0.00 0.01 0.01 0.01 0.01 0.02 0.06 0.10 0.05 0.03 0.02 0.01 0.01 0.00 0.00 0.00 0.00 0.00 0.00 0.00 0.00 0.00 0.00 0.00 0.00 0.00 0.00 0.00 0.00 0.00 0.00 0.01 0.03 0.06 0.09 0.11 0.14 0.15 0.13 0.09 0.05 0.02 0.00 0.00
0.00 0.02 0.03 0.01 0.01 0.01 0.01 0.01 0.01 0.00 0.00 0.00 0.00 0.00 0.00 0.00 0.00 0.00 0.00 0.00 0.00 0.00 0.00 0.00 0.00 0.00 0.00 0.00 0.00 0.00 0.00 0.01 0.02 0.05 0.09 0.13 0.17 0.20 0.20 0.16 0.09 0.04 0.01 0.00
0.01 0.02 0.01 0.01 0.00 0.00 0.00 0.00 0.00 0.00 0.00 0.00 0.00 0.00 0.00 0.00 0.00 0.00 0.00 0.00 0.00 0.00 0.00 0.00 0.00 0.00 0.00 0.00 0.00 0.00 0.00 0.01 0.02 0.05 0.09 0.15 0.21 0.27 0.29 0.25 0.15 0.06 0.02 0.01
0.00 0.00 0.00 0.00 0.00 0.00 0.00 0.00 0.00 0.00 0.00 0.00 0.00 0.00 0.00 0.00 0.00 0.00 0.00 0.00 0.00 0.00 0.00 0.00 0.00 0.00 0.00 0.00 0.00 0.00 0.00 0.01 0.02 0.05 0.10 0.15 0.20 0.27 0.33 0.33 0.22 0.10 0.03 0.01
0.00 0.00 0.00 0.00 0.00 0.00 0.00 0.00 0.00 0.00 0.00 0.00 0.00 0.00 0.00 0.00 0.00 0.00 0.00 0.00 0.00 0.00 0.00 0.00 0.00 0.00 0.00 0.00 0.00 0.00 0.01 0.01 0.02 0.05 0.10 0.16 0.21 0.26 0.31 0.31 0.25 0.13 0.05 0.02
0.00 0.00 0.00 0.00 0.00 0.00 0.00 0.00 0.00 0.00 0.00 0.00 0.00 0.00 0.00 0.00 0.00 0.00 0.00 0.00 0.00 0.00 0.00 0.00 0.00 0.00 0.00 0.00 0.00 0.00 0.01 0.01 0.02 0.04 0.09 0.17 0.22 0.27 0.31 0.32 0.28 0.17 0.09 0.04
0.00 0.00 0.00 0.00 0.00 0.00 0.00 0.00 0.00 0.00 0.00 0.00 0.00 0.00 0.00 0.00 0.00 0.00 0.00 0.00 0.00 0.00 0.00 0.00 0.00 0.00 0.00 0.00 0.00 0.00 0.01 0.01 0.02 0.05 0.10 0.18 0.24 0.27 0.31 0.32 0.30 0.20 0.12 0.07
0.00 0.00 0.00 0.00 0.00 0.00 0.00 0.00 0.00 0.00 0.00 0.00 0.00 0.00 0.00 0.00 0.00 0.00 0.00 0.00 0.00 0.00 0.00 0.00 0.00 0.00 0.00 0.00 0.00 0.00 0.01 0.01 0.02 0.05 0.10 0.17 0.24 0.29 0.32 0.34 0.29 0.19 0.12 0.08
0.00 0.00 0.00 0.00 0.00 0.00 0.00 0.00 0.00 0.00 0.00 0.00 0.00 0.00 0.00 0.00 0.00 0.00 0.00 0.00 0.00 0.00 0.00 0.00 0.00 0.00 0.00 0.00 0.00 0.00 0.01 0.01 0.02 0.04 0.09 0.15 0.21 0.28 0.31 0.32 0.28 0.20 0.12 0.07
0.00 0.00 0.00 0.00 0.00 0.00 0.00 0.00 0.00 0.00 0.00 0.00 0.00 0.00 0.00 0.00 0.00 0.00 0.00 0.00 0.01 0.01 0.01 0.01 0.01 0.00 0.00 0.00 0.00 0.00 0.00 0.01 0.01 0.04 0.08 0.13 0.19 0.25 0.28 0.28 0.25 0.17 0.12 0.06
0.00 0.00 0.00 0.00 0.00 0.00 0.00 0.00 0.00 0.00 0.00 0.00 0.00 0.00 0.00 0.00 0.00 0.01 0.01 0.01 0.01 0.01 0.01 0.01 0.01 0.01 0.01 0.01 0.01 0.01 0.00 0.00 0.01 0.03 0.08 0.12 0.17 0.23 0.26 0.23 0.19 0.14 0.09 0.05
0.00 0.00 0.00 0.00 0.00 0.00 0.00 0.00 0.00 0.00 0.00 0.00 0.00 0.00 0.00 0.01 0.02 0.02 0.02 0.02 0.02 0.02 0.02 0.02 0.02 0.02 0.02 0.01 0.01 0.01 0.01 0.00 0.01 0.02 0.06 0.11 0.14 0.20 0.23 0.19 0.14 0.11 0.08 0.05
0.00 0.00 0.00 0.00 0.00 0.00 0.00 0.00 0.00 0.00 0.00 0.00 0.00 0.01 0.01 0.02 0.04 0.04 0.03 0.04 0.04 0.04 0.03 0.02 0.03 0.03 0.02 0.01 0.01 0.01 0.01 0.01 0.01 0.02 0.05 0.09 0.12 0.16 0.19 0.17 0.11 0.08 0.06 0.03
0.00 0.00 0.00 0.00 0.00 0.00 0.00 0.00 0.00 0.00 0.00 0.00 0.01 0.02 0.04 0.05 0.06 0.07 0.06 0.06 0.05 0.05 0.04 0.04 0.04 0.03 0.02 0.01 0.01 0.01 0.01 0.01 0.01 0.02 0.04 0.07 0.10 0.13 0.15 0.14 0.10 0.07 0.03 0.02
0.00 0.00 0.00 0.00 0.00 0.00 0.00 0.00 0.00 0.00 0.00 0.01 0.02 0.04 0.07 0.08 0.08 0.09 0.10 0.08 0.05 0.05 0.06 0.06 0.06 0.04 0.03 0.03 0.02 0.02 0.01 0.01 0.01 0.01 0.03 0.05 0.09 0.11 0.12 0.12 0.08 0.05 0.02 0.01
0.00 0.00 0.00 0.00 0.00 0.00 0.00 0.00 0.00 0.00 0.00 0.01 0.03 0.07 0.11 0.13 0.12 0.12 0.10 0.10 0.08 0.08 0.09 0.08 0.07 0.06 0.04 0.03 0.02 0.01 0.01 0.01 0.01 0.01 0.02 0.04 0.07 0.09 0.10 0.09 0.05 0.03 0.01 0.01
0.00 0.00 0.00 0.00 0.00 0.00 0.00 0.00 0.00 0.00 0.00 0.01 0.05 0.10 0.17 0.18 0.18 0.18 0.14 0.10 0.08 0.07 0.06 0.06 0.06 0.04 0.04 0.03 0.02 0.01 0.01 0.01 0.02 0.02 0.03 0.04 0.06 0.07 0.07 0.05 0.03 0.02 0.01 0.00
0.00 0.00 0.00 0.00 0.00 0.00 0.00 0.00 0.00 0.00 0.00 0.01 0.04 0.10 0.18 0.24 0.22 0.17 0.13 0.10 0.10 0.07 0.04 0.04 0.04 0.03 0.03 0.02 0.02 0.01 0.02 0.03 0.02 0.02 0.03 0.04 0.05 0.05 0.05 0.03 0.02 0.01 0.01 0.00
0.00 0.00 0.00 0.00 0.00 0.00 0.00 0.00 0.00 0.00 0.01 0.02 0.03 0.07 0.13 0.21 0.24 0.19 0.11 0.07 0.07 0.07 0.06 0.05 0.05 0.06 0.05 0.03 0.02 0.04 0.06 0.05 0.03 0.03 0.03 0.04 0.04 0.04 0.03 0.02 0.01 0.01 0.00 0.00
0.00 0.00 0.00 0.00 0.00 0.00 0.00 0.00 0.01 0.01 0.03 0.04 0.06 0.08 0.13 0.17 0.17 0.15 0.11 0.07 0.06 0.06 0.06 0.06 0.08 0.09 0.08 0.05 0.05 0.07 0.07 0.07 0.05 0.04 0.04 0.03 0.02 0.02 0.01 0.01 0.01 0.00 0.00 0.00
0.00 0.00 0.00 0.00 0.00 0.00 0.00 0.00 0.01 0.02 0.04 0.05 0.08 0.10 0.14 0.18 0.15 0.12 0.10 0.08 0.07 0.06 0.05 0.04 0.05 0.06 0.07 0.06 0.05 0.05 0.05 0.07 0.06 0.05 0.04 0.02 0.01 0.01 0.01 0.00 0.00 0.00 0.00 0.00
MSLP
1014.75 1014.99 1015.30 1015.69 1016.14 1016.61 1017.07 1017.48 1017.80 1017.99 1018.06 1018.00 1017.83 1017.57 1017.26 1016.92 1016.58 1016.23 1015.89 1015.55 1015.20 1014.84 1014.45 1014.03 1013.59 1013.12 1012.63 1012.13 1011.63 1011.13 1010.65 1010.19 1009.78 1009.43 1009.15 1008.94 1008.80 1008.71 1008.66 1008.61 1008.54 1008.42 1008.22 1007.95
1015.09 1015.34 1015.63 1015.96 1016.32 1016.70 1017.07 1017.41 1017.68 1017.87 1017.96 1017.95 1017.85 1017.67 1017.43 1017.14 1016.82 1016.48 1016.11 1015.74 1015.35 1014.94 1014.52 1014.09 1013.64 1013.18 1012.70 1012.21 1011.69 1011.17 1010.65 1010.14 1009.67 1009.25 1008.91 1008.65 1008.48 1008.40 1008.37 1008.38 1008.39 1008.38 1008.31 1008.16
1015.62 1015.88 1016.16 1016.45 1016.75 1017.06 1017.35 1017.60 1017.81 1017.95 1018.02 1018.01 1017.91 1017.75 1017.51 1017.22 1016.88 1016.50 1016.10 1015.67 1015.24 1014.80 1014.36 1013.92 1013.48 1013.04 1012.59 1012.11 1011.62 1011.10 1010.57 1010.04 1009.53 1009.06 1008.67 1008.37 1008.16 1008.06 1008.04 1008.08 1008.15 1008.22 1008.25 1008.23
1016.35 1016.63 1016.89 1017.16 1017.41 1017.65 1017.86 1018.04 1018.16 1018.22 1018.22 1018.15 1018.01 1017.79 1017.51 1017.17 1016.77 1016.34 1015.87 1015.39 1014.91 1014.44 1013.98 1013.54 1013.12 1012.71 1012.29 1011.86 1011.40 1010.91 1010.39 1009.86 1009.33 1008.83 1008.40 1008.04 1007.80 1007.65 1007.61 1007.65 1007.75 1007.87 1007.98 1008.06
1017.22 1017.49 1017.75 1017.98 1018.20 1018.37 1018.51 1018.59 1018.62 1018.59 1018.49 1018.32 1018.09 1017.79 1017.42 1017.00 1016.53 1016.02 1015.49 1014.95 1014.42 1013.92 1013.45 1013.01 1012.61 1012.22 1011.85 1011.46 1011.04 1010.59 1010.10 1009.58 1009.04 1008.52 1008.05 1007.65 1007.34 1007.14 1007.05 1007.05 1007.14 1007.28 1007.44 1007.60
1018.12 1018.37 1018.60 1018.81 1018.97 1019.08 1019.14 1019.13 1019.05 1018.91 1018.70 1018.42 1018.08 1017.67 1017.21 1016.70 1016.15 1015.57 1014.98 1014.39 1013.83 1013.30 1012.81 1012.38 1011.99 1011.63 1011.29 1010.94 1010.57 1010.15 1009.69 1009.19 1008.66 1008.13 1007.61 1007.15 1006.77 1006.50 1006.33 1006.28 1006.32 1006.45 1006.65 1006.87
1018.93 1019.14 1019.33 1019.49 1019.59 1019.63 1019.60 1019.50 1019.32 1019.06 1018.74 1018.35 1017.90 1017.39 1016.84 1016.26 1015.64 1015.01 1014.37 1013.75 1013.16 1012.61 1012.11 1011.68 1011.29 1010.95 1010.64 1010.32 1009.99 1009.61 1009.18 1008.70 1008.18 1007.62 1007.07 1006.55 1006.10 1005.73 1005.48 1005.35 1005.35 1005.45 1005.66 1005.94
1019.56 1019.72 1019.84 1019.93 1019.96 1019.92 1019.80 1019.59 1019.31 1018.95 1018.52 1018.03 1017.49 1016.91 1016.30 1015.66 1015.00 1014.34 1013.67 1013.03 1012.42 1011.86 1011.36 1010.92 1010.54 1010.20 1009.90 1009.61 1009.31 1008.96 1008.56 1008.10 1007.58 1007.02 1006.43 1005.86 1005.33 1004.88 1004.54 1004.33 1004.27 1004.35 1004.57 1004.90
1019.98 1020.06 1020.10 1020.10 1020.03 1019.90 1019.68 1019.37 1018.99 1018.53 1018.01 1017.45 1016.84 1016.21 1015.56 1014.89 1014.22 1013.54 1012.88 1012.23 1011.62 1011.05 1010.54 1010.09 1009.70 1009.37 1009.08 1008.80 1008.52 1008.20 1007.83 1007.39 1006.88 1006.31 1005.70 1005.08 1004.49 1003.97 1003.56 1003.29 1003.18 1003.24 1003.47 1003.86
1020.19 1020.17 1020.11 1020.00 1019.83 1019.59 1019.26 1018.86 1018.38 1017.85 1017.26 1016.64 1015.99 1015.33 1014.66 1013.99 1013.31 1012.64 1011.98 1011.33 1010.72 1010.15 1009.62 1009.16 1008.77 1008.43 1008.14 1007.87 1007.61 1007.32 1006.97 1006.56 1006.07 1005.51 1004.90 1004.26 1003.63 1003.07 1002.61 1002.29 1002.15 1002.20 1002.46 1002.90
1020.23 1020.11 1019.94 1019.71 1019.43 1019.07 1018.64 1018.14 1017.58 1016.98 1016.33 1015.67 1014.99 1014.32 1013.64 1012.97 1012.30 1011.63 1010.97 1010.33 1009.71 1009.12 1008.59 1008.11 1007.70 1007.35 1007.06 1006.81 1006.57 1006.31 1006.00 1005.63 1005.18 1004.65 1004.05 1003.42 1002.79 1002.21 1001.73 1001.39 1001.25 1001.31 1001.59 1002.09
1020.17 1019.94 1019.65 1019.31 1018.91 1018.44 1017.91 1017.33 1016.69 1016.03 1015.34 1014.64 1013.94 1013.25 1012.57 1011.89 1011.21 1010.54 1009.87 1009.21 1008.57 1007.96 1007.40 1006.90 1006.48 1006.13 1005.84 1005.61 1005.40 1005.18 1004.93 1004.61 1004.22 1003.74 1003.19 1002.59 1001.98 1001.42 1000.95 1000.63 1000.49 1000.58 1000.90 1001.44
1020.05 1019.71 1019.32 1018.87 1018.36 1017.80 1017.18 1016.52 1015.82 1015.11 1014.38 1013.65 1012.92 1012.21 1011.50 1010.80 1010.09 1009.39 1008.68 1007.98 1007.31 1006.66 1006.07 1005.56 1005.12 1004.77 1004.50 1004.29 1004.13 1003.97 1003.78 1003.54 1003.22 1002.82 1002.33 1001.79 1001.24 1000.72 1000.29 1000.00 999.90 1000.01 1000.36 1000.94
1019.89 1019.46 1018.97 1018.43 1017.83 1017.19 1016.50 1015.78 1015.04 1014.28 1013.51 1012.75 1011.99 1011.23 1010.48 1009.73 1008.97 1008.20 1007.44 1006.68 1005.95 1005.26 1004.64 1004.10 1003.65 1003.31 1003.07 1002.91 1002.80 1002.71 1002.61 1002.46 1002.23 1001.91 1001.52 1001.06 1000.58 1000.12 999.74 999.50 999.43 999.57 999.95 1000.54
1019.69 1019.18 1018.62 1018.00 1017.34 1016.64 1015.90 1015.14 1014.36 1013.57 1012.77 1011.96 1011.16 1010.35 1009.53 1008.70 1007.86 1007.02 1006.17 1005.34 1004.54 1003.80 1003.14 1002.59 1002.15 1001.83 1001.63 1001.52 1001.48 1001.48 1001.47 1001.41 1001.28 1001.06 1000.76 1000.40 999.99 999.61 999.29 999.09 999.06 999.23 999.61 1000.21
1019.41 1018.85 1018.23 1017.57 1016.87 1016.13 1015.37 1014.59 1013.79 1012.97 1012.14 1011.29 1010.43 1009.55 1008.65 1007.73 1006.79 1005.85 1004.91 1004.00 1003.14 1002.35 1001.67 1001.10 1000.68 1000.39 1000.24 1000.20 1000.24 1000.32 1000.40 1000.44 1000.41 1000.29 1000.08 999.80 999.48 999.17 998.91 998.76 998.76 998.94 999.33 999.91
1019.06 1018.45 1017.80 1017.11 1016.40 1015.65 1014.88 1014.09 1013.28 1012.44 1011.58 1010.69 1009.77 1008.81 1007.83 1006.81 1005.78 1004.74 1003.71 1002.73 1001.81 1000.98 1000.28 999.73 999.33 999.09 998.99 999.02 999.13 999.29 999.45 999.58 999.63 999.60 999.47 999.28 999.03 998.79 998.58 998.48 998.50 998.70 999.07 999.63
1018.62 1018.00 1017.33 1016.64 1015.92 1015.18 1014.42 1013.63 1012.81 1011.96 1011.07 1010.13 1009.15 1008.13 1007.06 1005.95 1004.83 1003.71 1002.61 1001.56 1000.60 999.76 999.06 998.52 998.16 997.96 997.92 998.01 998.19 998.41 998.64 998.83 998.94 998.98 998.92 998.79 998.61 998.43 998.28 998.21 998.26 998.46 998.83 999.36
1018.16 1017.52 1016.85 1016.16 1015.45 1014.72 1013.96 1013.18 1012.35 1011.49 1010.57 1009.59 1008.56 1007.47 1006.33 1005.15 1003.96 1002.77 1001.63 1000.55 999.57 998.73 998.05 997.54 997.21 997.06 997.07 997.20 997.42 997.68 997.95 998.17 998.33 998.40 998.39 998.31 998.19 998.06 997.96 997.94 998.02 998.24 998.61 999.12
1017.71 1017.07 1016.41 1015.72 1015.02 1014.29 1013.53 1012.74 1011.90 1011.01 1010.06 1009.05 1007.97 1006.83 1005.63 1004.41 1003.17 1001.95 1000.78 999.70 998.73 997.91 997.26 996.78 996.49 996.38 996.41 996.56 996.80 997.07 997.34 997.57 997.74 997.83 997.85 997.81 997.73 997.65 997.61 997.63 997.76 998.01 998.39 998.89
1017.35 1016.71 1016.04 1015.35 1014.64 1013.90 1013.13 1012.31 1011.45 1010.54 1009.55 1008.50 1007.38 1006.20 1004.98 1003.73 1002.48 1001.25 1000.09 999.02 998.08 997.29 996.67 996.23 995.97 995.86 995.90 996.05 996.27 996.52 996.77 996.98 997.13 997.23 997.26 997.25 997.21 997.18 997.20 997.28 997.46 997.75 998.16 998.67
1017.10 1016.46 1015.78 1015.07 1014.33 1013.57 1012.77 1011.92 1011.03 1010.07 1009.05 1007.96 1006.81 1005.61 1004.37 1003.12 1001.87 1000.67 999.53 998.50 997.59 996.84 996.26 995.84 995.59 995.48 995.50 995.61 995.79 995.99 996.19 996.36 996.48 996.56 996.60 996.60 996.61 996.64 996.71 996.86 997.11 997.45 997.90 998.44
1016.97 1016.31 1015.61 1014.88 1014.11 1013.30 1012.45 1011.56 1010.62 1009.62 1008.56 1007.45 1006.28 1005.07 1003.83 1002.59 1001.37 1000.20 999.10 998.11 997.25 996.54 995.98 995.57 995.31 995.18 995.15 995.21 995.32 995.45 995.58 995.69 995.78 995.83 995.87 995.90 995.94 996.03 996.17 996.40 996.71 997.11 997.60 998.18
1016.93 1016.25 1015.52 1014.75 1013.93 1013.08 1012.18 1011.24 1010.25 1009.21 1008.12 1006.98 1005.80 1004.59 1003.37 1002.16 1000.98 999.85 998.80 997.86 997.04 996.35 995.80 995.39 995.10 994.93 994.84 994.83 994.86 994.91 994.96 995.01 995.05 995.08 995.12 995.17 995.26 995.40 995.61 995.90 996.27 996.73 997.27 997.87
1016.92 1016.22 1015.45 1014.64 1013.78 1012.88 1011.93 1010.94 1009.92 1008.85 1007.74 1006.59 1005.41 1004.22 1003.03 1001.86 1000.72 999.64 998.64 997.73 996.94 996.27 995.72 995.29 994.96 994.73 994.58 994.48 994.43 994.40 994.38 994.37 994.37 994.38 994.41 994.49 994.62 994.81 995.08 995.43 995.86 996.36 996.93 997.55
1016.89 1016.17 1015.37 1014.52 1013.63 1012.69 1011.71 1010.69 1009.64 1008.56 1007.45 1006.31 1005.16 1004.00 1002.84 1001.71 1000.62 999.59 998.63 997.76 996.99 996.32 995.76 995.30 994.93 994.63 994.41 994.24 994.10 994.00 993.91 993.85 993.82 993.81 993.86 993.95 994.11 994.34 994.66 995.05 995.52 996.04 996.63 997.24
1016.81 1016.07 1015.25 1014.39 1013.47 1012.52 1011.53 1010.51 1009.46 1008.39 1007.30 1006.19 1005.08 1003.96 1002.86 1001.78 1000.74 999.75 998.82 997.98 997.22 996.55 995.96 995.47 995.04 994.69 994.40 994.16 993.96 993.80 993.66 993.57 993.51 993.50 993.54 993.66 993.84 994.10 994.44 994.85 995.33 995.86 996.43 997.03
Thickness
5702 5705 5703 5699 5694 5690 5679 5671 5660 5660 5651 5643 5642 5640 5639 5638 5638 5637 5636 5635 5634 5632 5631 5631 5631 5631 5631 5631 5632 5634 5635 5638 5641 5644 5645 5644 5642 5639 5637 5634 5633 5631 5629 5628
5701 5706 5700 5690 5684 5679 5669 5662 5656 5647 5637 5634 5634 5632 5629 5626 5625 5624 5622 5621 5620 5618 5617 5616 5615 5615 5616 5616 5618 5618 5620 5623 5628 5631 5633 5634 5633 5632 5629 5628 5626 5625 5623 5621
5683 5691 5691 5670 5663 5662 5651 5644 5640 5633 5624 5622 5621 5618 5614 5612 5610 5608 5607 5606 5604 5602 5601 5600 5599 5598 5598 5599 5600 5601 5603 5607 5611 5615 5619 5622 5623 5622 5621 5620 5619 5618 5616 5615
5671 5678 5663 5650 5656 5651 5640 5631 5626 5619 5614 5609 5605 5603 5602 5600 5596 5595 5594 5591 5589 5587 5586 5584 5582 5581 5581 5581 5582 5582 5584 5587 5591 5596 5602 5606 5609 5611 5612 5612 5611 5611 5610 5609
5657 5657 5652 5646 5643 5636 5629 5620 5611 5605 5603 5600 5598 5596 5596 5593 5587 5582 5578 5574 5572 5569 5567 5565 5563 5562 5561 5562 5562 5562 5564 5567 5571 5575 5581 5588 5593 5598 5601 5602 5603 5603 5604 5603
5651 5650 5640 5625 5630 5630 5622 5610 5600 5596 5592 5588 5582 5573 5576 5576 5570 5565 5560 5556 5552 5550 5547 5544 5543 5540 5538 5540 5541 5542 5545 5547 5550 5554 5559 5567 5576 5583 5589 5593 5596 5596 5597 5597
5640 5636 5625 5613 5618 5622 5603 5593 5590 5584 5578 5571 5562 5557 5558 5554 5549 5544 5540 5537 5534 5530 5528 5526 5524 5520 5519 5520 5521 5525 5527 5529 5532 5535 5540 5548 5557 5566 5575 5583 5587 5588 5590 5590
5630 5625 5614 5606 5606 5595 5586 5584 5578 5572 5565 5557 5551 5546 5541 5535 5529 5524 5520 5516 5512 5508 5509 5508 5505 5501 5502 5505 5509 5510 5512 5514 5517 5520 5523 5531 5538 5549 5561 5572 5579 5582 5583 5583
5617 5607 5602 5598 5591 5587 5580 5571 5565 5557 5551 5543 5534 5528 5523 5516 5511 5506 5502 5499 5497 5494 5495 5496 5494 5492 5492 5498 5499 5500 5501 5503 5506 5509 5511 5515 5522 5533 5547 5560 5572 5578 5580 5581
5607 5602 5597 5592 5586 5579 5570 5561 5553 5544 5536 5526 5516 5511 5505 5500 5496 5493 5491 5489 5488 5486 5487 5490 5491 5490 5490 5493 5494 5493 5494 5496 5498 5500 5502 5504 5509 5520 5534 5549 5563 5572 5578 5579
5597 5594 5589 5585 5578 5570 5560 5550 5541 5533 5522 5511 5502 5497 5493 5490 5488 5487 5486 5486 5484 5483 5485 5488 5489 5489 5490 5490 5489 5488 5489 5490 5492 5493 5495 5497 5503 5512 5524 5539 5555 5567 5576 5580
5589 5586 5575 5570 5566 5557 5546 5537 5529 5519 5511 5503 5493 5488 5487 5487 5486 5485 5485 5486 5485 5485 5486 5488 5488 5488 5489 5487 5485 5485 5486 5487 5487 5488 5490 5492 5497 5508 5521 5534 5549 5559 5570 5577
5584 5579 5568 5560 5554 5545 5535 5527 5518 5508 5499 5494 5492 5487 5485 5485 5486 5486 5486 5486 5486 5487 5488 5489 5488 5488 5488 5486 5483 5482 5482 5483 5483 5484 5485 5489 5494 5504 5517 5533 5545 5556 5563 5569
5577 5567 5557 5552 5545 5537 5526 5518 5509 5500 5494 5489 5488 5488 5486 5486 5487 5487 5488 5489 5488 5488 5489 5488 5487 5487 5485 5483 5480 5480 5479 5480 5481 5481 5483 5487 5494 5503 5514 5528 5543 5555 5559 5564
5572 5561 5551 5544 5534 5525 5516 5507 5500 5495 5491 5490 5488 5487 5487 5486 5487 5488 5488 5488 5487 5486 5485 5484 5483 5483 5481 5479 5477 5476 5476 5477 5478 5480 5482 5487 5495 5504 5516 5530 5543 5555 5559 5560
5563 5552 5543 5533 5525 5516 5506 5497 5492 5490 5489 5487 5487 5487 5486 5485 5485 5486 5485 5484 5481 5481 5480 5479 5479 5479 5477 5475 5474 5473 5473 5476 5478 5480 5483 5490 5498 5508 5520 5533 5546 5556 5561 5564
5548 5541 5534 5525 5515 5506 5497 5490 5486 5486 5486 5486 5486 5486 5485 5484 5483 5483 5482 5480 5477 5476 5475 5474 5474 5474 5472 5472 5471 5471 5471 5473 5478 5481 5486 5492 5502 5512 5525 5536 5547 5557 5563 5566
5541 5532 5522 5512 5505 5499 5494 5489 5486 5484 5484 5485 5485 5483 5482 5480 5479 5479 5478 5476 5474 5473 5472 5470 5469 5468 5468 5468 5468 5468 5469 5471 5475 5480 5487 5495 5506 5518 5529 5539 5549 5557 5562 5562
5537 5527 5518 5508 5499 5492 5488 5485 5485 5484 5484 5483 5481 5480 5478 5477 5475 5475 5474 5472 5471 5471 5472 5468 5464 5462 5462 5463 5465 5466 5468 5472 5477 5483 5490 5499 5510 5522 5533 5543 5552 5558 5563 5563
5532 5523 5513 5504 5496 5489 5485 5484 5483 5483 5483 5481 5480 5479 5478 5477 5475 5473 5472 5470 5469 5468 5467 5464 5461 5459 5459 5460 5463 5465 5468 5473 5480 5488 5496 5506 5517 5528 5539 5547 5556 5561 5564 5566
5526 5517 5508 5500 5493 5488 5483 5482 5482 5482 5482 5480 5478 5477 5476 5476 5475 5473 5471 5472 5472 5467 5463 5460 5458 5457 5457 5458 5461 5465 5470 5477 5485 5493 5503 5512 5524 5534 5543 5551 5559 5563 5566 5568
5519 5511 5503 5495 5490 5487 5485 5483 5482 5481 5482 5482 5480 5479 5478 5478 5478 5476 5474 5470 5469 5464 5461 5460 5459 5458 5458 5460 5463 5468 5475 5482 5491 5500 5509 5520 5531 5540 5549 5556 5562 5566 5569 5571
5514 5505 5497 5491 5486 5484 5485 5484 5483 5483 5483 5482 5481 5480 5479 5478 5476 5476 5478 5475 5471 5467 5464 5463 5462 5462 5463 5465 5469 5475 5482 5490 5499 5509 5519 5529 5538 5548 5555 5562 5566 5570 5572 5573
5509 5501 5495 5489 5484 5484 5485 5486 5485 5485 5484 5484 5484 5482 5481 5482 5483 5481 5478 5476 5475 5473 5473 5470 5469 5471 5473 5475 5480 5485 5492 5501 5510 5520 5529 5538 5546 5553 5560 5566 5570 5573 5575 5576
5505 5498 5493 5488 5485 5484 5484 5485 5486 5488 5488 5488 5488 5488 5486 5484 5484 5485 5484 5483 5482 5482 5483 5482 5482 5483 5486 5489 5493 5499 5506 5514 5523 5531 5539 5546 5553 5560 5566 5570 5574 5576 5577 5579
5501 5495 5489 5483 5480 5480 5482 5483 5485 5487 5488 5490 5491 5491 5491 5491 5491 5491 5492 5492 5493 5493 5494 5495 5496 5497 5500 5503 5508 5514 5521 5528 5534 5541 5547 5554 5560 5566 5571 5574 5576 5578 5580 5581
5499 5493 5488 5486 5484 5482 5482 5482 5484 5487 5488 5488 5489 5492 5493 5494 5495 5497 5499 5500 5501 5504 5505 5507 5509 5511 5513 5517 5522 5527 5533 5539 5545 5550 5556 5562 5567 5571 5574 5577 5579 5580 5581 5582